| time (UTC) | temp C | wind direction | speed KPH | gust KPH | rain 1hr cm | rain 24hr cm | rain mn cm | humidity % | barometer mb |
| 20260507060901 | 12 | 247 | 6.4 | 16.1 | 0.00 | 0.00 | 0.00 | 73 | |
| 20260507055401 | 13 | 225 | 6.4 | 11.3 | 0.00 | 0.00 | 0.00 | 75 | |
| 20260507053901 | 11 | 225 | 6.4 | 14.5 | 0.00 | 0.00 | 0.00 | 78 | |
| 20260507052401 | 10 | 247 | 6.4 | 12.9 | 0.00 | 0.00 | 0.00 | 80 | |
| 20260507050901 | 10 | 225 | 4.8 | 11.3 | 0.00 | 0.00 | 0.00 | 81 | |
| 20260507045402 | 10 | 225 | 4.8 | 12.9 | 0.00 | 0.00 | 0.00 | 82 | |
| 20260507043903 | 10 | 247 | 4.8 | 11.3 | 0.00 | 0.00 | 0.00 | 83 | |
| 20260507042403 | 10 | 247 | 3.2 | 11.3 | 0.00 | 0.00 | 0.00 | 84 | |
| 20260507040904 | 9 | 247 | 4.8 | 16.1 | 0.00 | 0.00 | 0.00 | 84 | |
| 20260507035404 | 9 | 247 | 3.2 | 11.3 | 0.00 | 0.00 | 0.00 | 85 | |
| 20260507033902 | 10 | 247 | 4.8 | 12.9 | 0.00 | 0.00 | 0.00 | 85 | |
| 20260507032402 | 10 | 247 | 3.2 | 8.0 | 0.00 | 0.00 | 0.00 | 85 | |
| 20260507030902 | 10 | 247 | 3.2 | 12.9 | 0.00 | 0.00 | 0.00 | 85 | |
| 20260507025402 | 10 | 247 | 1.6 | 8.0 | 0.00 | 0.00 | 0.00 | 85 | |
| 20260507023901 | 10 | 247 | 3.2 | 8.0 | 0.00 | 0.00 | 0.00 | 85 | |
| 20260507022402 | 10 | 247 | 3.2 | 9.7 | 0.00 | 0.00 | 0.00 | 86 | |
| 20260507020903 | 10 | 247 | 4.8 | 11.3 | 0.00 | 0.00 | 0.00 | 86 | |
| 20260507015402 | 10 | 247 | 3.2 | 11.3 | 0.00 | 0.00 | 0.00 | 86 | |
| 20260507013901 | 10 | 247 | 3.2 | 11.3 | 0.00 | 0.00 | 0.00 | 86 | |
| 20260507012401 | 10 | 247 | 4.8 | 11.3 | 0.00 | 0.00 | 0.00 | 86 | |
| 20260507010901 | 11 | 247 | 3.2 | 14.5 | 0.00 | 0.00 | 0.00 | 86 | |
| 20260507005403 | 10 | 247 | 3.2 | 9.7 | 0.00 | 0.00 | 0.00 | 85 | |
| 20260507003903 | 11 | 247 | 3.2 | 4.8 | 0.00 | 0.00 | 0.00 | 85 | |
| 20260507002403 | 11 | 270 | 1.6 | 6.4 | 0.00 | 0.00 | 0.00 | 85 | |
| 20260507000909 | 11 | 247 | 1.6 | 9.7 | 0.00 | 0.00 | 0.00 | 85 | |
| 20260506235402 | 11 | 247 | 3.2 | 11.3 | 0.00 | 0.00 | 0.00 | 85 | |
| 20260506233902 | 11 | 247 | 1.6 | 6.4 | 0.00 | 0.00 | 0.00 | 85 | |
| 20260506232402 | 11 | 247 | 3.2 | 9.7 | 0.00 | 0.00 | 0.00 | 85 | |
| 20260506230901 | 11 | 270 | 4.8 | 16.1 | 0.00 | 0.00 | 0.00 | 85 | |
| 20260506225402 | 11 | 225 | 4.8 | 16.1 | 0.00 | 0.00 | 0.00 | 85 | |
| 20260506223902 | 12 | 247 | 4.8 | 12.9 | 0.00 | 0.00 | 0.00 | 85 | |
| 20260506222403 | 12 | 247 | 4.8 | 12.9 | 0.00 | 0.00 | 0.00 | 84 | |
| 20260506220902 | 12 | 270 | 6.4 | 16.1 | 0.00 | 0.00 | 0.00 | 84 | |
| 20260506215403 | 12 | 225 | 6.4 | 16.1 | 0.00 | 0.00 | 0.00 | 84 | |
| 20260506213903 | 12 | 292 | 4.8 | 17.7 | 0.00 | 0.00 | 0.00 | 83 | |
| 20260506212404 | 12 | 0 | 4.8 | 14.5 | 0.00 | 0.00 | 0.00 | 86 | |
| 20260506210902 | 12 | 0 | 6.4 | 19.3 | 0.00 | 0.00 | 0.00 | 82 | |
| 20260506205404 | 12 | 247 | 4.8 | 16.1 | 0.00 | 0.00 | 0.00 | 81 | |
| 20260506203902 | 13 | 270 | 8.0 | 27.4 | 0.00 | 0.00 | 0.00 | 82 | |
| 20260506202404 | 13 | 247 | 9.7 | 24.1 | 0.00 | 0.00 | 0.00 | 80 | |
| 20260506200902 | 13 | 247 | 9.7 | 24.1 | 0.00 | 0.00 | 0.00 | 78 | |
| 20260506193901 | 14 | 225 | 4.8 | 11.3 | 0.00 | 0.00 | 0.00 | 62 | |
| 20260506192402 | 13 | 225 | 1.6 | 6.4 | 0.00 | 0.00 | 0.00 | 67 | |
| 20260506190902 | 13 | 225 | 0.0 | 1.6 | 0.00 | 0.00 | 0.00 | 68 | |
| 20260506183902 | 15 | 225 | 0.0 | 1.6 | 0.00 | 0.00 | 0.00 | 65 | |
| 20260506182402 | 15 | 225 | 0.0 | 1.6 | 0.00 | 0.00 | 0.00 | 62 | |
| 20260506180902 | 16 | 0 | 0.0 | 1.6 | 0.00 | 0.00 | 0.00 | 61 | |
| 20260506175402 | 16 | 225 | 0.0 | 1.6 | 0.00 | 0.00 | 0.00 | 60 | |
| 20260506173903 | 17 | 112 | 0.0 | 1.6 | 0.00 | 0.00 | 0.00 | 56 | |
| 20260506172402 | 18 | 202 | 0.0 | 0.0 | 0.00 | 0.00 | 0.00 | 55 | |
| 20260506170905 | 19 | 67 | 1.6 | 8.0 | 0.00 | 0.00 | 0.00 | 52 | |
| 20260506165403 | 20 | 45 | 3.2 | 14.5 | 0.00 | 0.00 | 0.00 | 49 | |
| 20260506163902 | 20 | 67 | 4.8 | 17.7 | 0.00 | 0.00 | 0.00 | 50 | |
| 20260506162402 | 19 | 45 | 1.6 | 8.0 | 0.00 | 0.00 | 0.00 | 51 | |
| 20260506160902 | 20 | 45 | 3.2 | 9.7 | 0.00 | 0.00 | 0.00 | 49 | |
| 20260506155402 | 20 | 225 | 3.2 | 16.1 | 0.00 | 0.00 | 0.00 | 51 | |
| 20260506153902 | 20 | 45 | 3.2 | 14.5 | 0.00 | 0.00 | 0.00 | 50 | |
| 20260506152404 | 20 | 67 | 3.2 | 14.5 | 0.00 | 0.00 | 0.00 | 51 | |
| 20260506150902 | 20 | 112 | 1.6 | 9.7 | 0.00 | 0.00 | 0.00 | 52 | |
| 20260506145405 | 20 | 225 | 1.6 | 11.3 | 0.00 | 0.00 | 0.00 | 52 | |
| 20260506143903 | 20 | 112 | 1.6 | 17.7 | 0.00 | 0.00 | 0.00 | 52 | |
| 20260506142403 | 20 | 45 | 1.6 | 9.7 | 0.00 | 0.00 | 0.00 | 52 | |
| 20260506140905 | 20 | 22 | 3.2 | 9.7 | 0.00 | 0.00 | 0.00 | 52 | |
| 20260506135403 | 20 | 22 | 3.2 | 11.3 | 0.00 | 0.00 | 0.00 | 51 | |
| 20260506133903 | 20 | 22 | 1.6 | 8.0 | 0.00 | 0.00 | 0.00 | 51 | |
| 20260506132409 | 20 | 45 | 3.2 | 12.9 | 0.00 | 0.00 | 0.00 | 51 | |
| 20260506130902 | 21 | 247 | 3.2 | 14.5 | 0.00 | 0.00 | 0.00 | 50 | |
| 20260506125402 | 20 | 225 | 3.2 | 11.3 | 0.00 | 0.00 | 0.00 | 51 | |
| 20260506123903 | 21 | 225 | 4.8 | 20.9 | 0.00 | 0.00 | 0.00 | 49 | |
| 20260506122402 | 20 | 45 | 3.2 | 9.7 | 0.00 | 0.00 | 0.00 | 50 | |
| 20260506120902 | 21 | 202 | 3.2 | 12.9 | 0.00 | 0.00 | 0.00 | 48 | |
| 20260506115401 | 20 | 90 | 1.6 | 6.4 | 0.00 | 0.00 | 0.00 | 50 | |
| 20260506113903 | 22 | 225 | 3.2 | 12.9 | 0.00 | 0.00 | 0.00 | 47 | |
| 20260506112403 | 20 | 67 | 3.2 | 12.9 | 0.00 | 0.00 | 0.00 | 50 | |
| 20260506110904 | 21 | 45 | 1.6 | 6.4 | 0.00 | 0.00 | 0.00 | 47 | |
| 20260506105403 | 20 | 225 | 3.2 | 9.7 | 0.00 | 0.00 | 0.00 | 49 | |
| 20260506103902 | 20 | 225 | 1.6 | 9.7 | 0.00 | 0.00 | 0.00 | 50 | |
| 20260506102403 | 20 | 225 | 1.6 | 6.4 | 0.00 | 0.00 | 0.00 | 52 | |
| 20260506095402 | 20 | 247 | 1.6 | 8.0 | 0.00 | 0.00 | 0.00 | 52 | |
| 20260506093902 | 20 | 225 | 1.6 | 9.7 | 0.00 | 0.00 | 0.00 | 54 | |
| 20260506092403 | 20 | 225 | 4.8 | 11.3 | 0.00 | 0.00 | 0.00 | 53 | |
| 20260506090902 | 18 | 225 | 3.2 | 8.0 | 0.00 | 0.00 | 0.00 | 55 | |
| 20260506085402 | 18 | 225 | 3.2 | 6.4 | 0.00 | 0.00 | 0.00 | 56 | |
| 20260506083901 | 18 | 225 | 3.2 | 8.0 | 0.00 | 0.00 | 0.00 | 58 | |
| 20260506082402 | 18 | 225 | 3.2 | 8.0 | 0.00 | 0.00 | 0.00 | 58 | |
| 20260506080902 | 18 | 0 | 1.6 | 3.2 | 0.00 | 0.00 | 0.00 | 59 | |
| 20260506072402 | 18 | 225 | 1.6 | 8.0 | 0.00 | 0.00 | 0.00 | 61 | |
| 20260506070903 | 18 | 225 | 3.2 | 11.3 | 0.00 | 0.00 | 0.00 | 63 | |
| 20260506062404 | 17 | 225 | 3.2 | 14.5 | 0.00 | 0.00 | 0.00 | 64 |